TimeMDT,TemperatureF,Dew PointF,Humidity,Sea Level PressureIn,VisibilityMPH,Wind Direction,Wind SpeedMPH,Gust SpeedMPH,PrecipitationIn,Events,Conditions,WindDirDegrees,DateUTC
12:53 AM,34.0,28.0,79,30.10,10.0,East,16.1,-,N/A,,Overcast,100,2012-10-07 06:53:00
1:53 AM,33.1,28.0,82,30.11,10.0,ESE,11.5,19.6,N/A,,Overcast,120,2012-10-07 07:53:00
2:53 AM,33.1,28.0,82,30.07,10.0,SE,16.1,-,N/A,,Overcast,130,2012-10-07 08:53:00
3:16 AM,33.8,28.4,81,30.21,10.0,ESE,10.4,-,N/A,,Overcast,110,2012-10-07 09:16:00
3:53 AM,32.0,28.0,85,30.10,10.0,ESE,13.8,-,N/A,,Overcast,120,2012-10-07 09:53:00
4:03 AM,32.0,28.4,87,30.19,6.0,ESE,10.4,-,N/A,,Overcast,120,2012-10-07 10:03:00
4:25 AM,32.0,30.2,93,30.19,1.8,SE,11.5,-,N/A,,Overcast,130,2012-10-07 10:25:00
4:53 AM,32.0,30.0,92,30.14,1.5,SE,13.8,-,N/A,,Overcast,130,2012-10-07 10:53:00
5:21 AM,32.0,30.2,93,30.19,0.8,SE,8.1,-,N/A,,Mist,140,2012-10-07 11:21:00
5:31 AM,30.2,30.2,100,30.19,2.0,SE,11.5,18.4,N/A,,Overcast,130,2012-10-07 11:31:00
5:45 AM,30.2,28.4,93,30.19,0.8,ESE,11.5,-,N/A,,Mist,120,2012-10-07 11:45:00
5:53 AM,30.9,30.0,96,30.17,0.2,SE,11.5,-,N/A,Fog,Light Freezing Fog,130,2012-10-07 11:53:00
5:57 AM,30.2,30.2,100,30.18,0.5,SE,13.8,-,N/A,Fog,Light Freezing Fog,130,2012-10-07 11:57:00
6:35 AM,30.2,28.4,93,30.18,0.2,SE,12.7,-,N/A,Fog,Light Freezing Fog,140,2012-10-07 12:35:00
6:44 AM,30.2,28.4,93,30.18,0.5,SE,12.7,-,N/A,Fog,Light Freezing Fog,130,2012-10-07 12:44:00
6:53 AM,30.9,28.9,92,30.18,0.8,SE,11.5,-,N/A,,Mist,130,2012-10-07 12:53:00
7:10 AM,30.2,28.4,93,30.19,0.8,SE,9.2,-,N/A,,Mist,130,2012-10-07 13:10:00
7:53 AM,30.9,28.9,92,30.19,0.8,SSE,8.1,-,N/A,,Mist,150,2012-10-07 13:53:00
8:03 AM,30.2,30.2,100,30.19,1.2,SSE,11.5,-,N/A,,Overcast,150,2012-10-07 14:03:00
8:41 AM,30.2,30.2,100,30.19,0.8,SSE,8.1,-,N/A,,Overcast,160,2012-10-07 14:41:00
8:53 AM,32.0,30.0,92,30.20,0.8,South,8.1,-,N/A,,Mist,170,2012-10-07 14:53:00
9:44 AM,33.8,30.2,87,30.20,1.5,South,6.9,-,N/A,,Overcast,180,2012-10-07 15:44:00
9:53 AM,33.1,30.0,89,30.20,1.5,South,5.8,-,N/A,,Overcast,190,2012-10-07 15:53:00
10:08 AM,33.8,30.2,87,30.20,3.0,SW,4.6,-,N/A,,Overcast,230,2012-10-07 16:08:00
10:19 AM,33.8,30.2,87,30.20,2.5,SSW,5.8,-,N/A,,Overcast,200,2012-10-07 16:19:00
10:27 AM,35.6,30.2,81,30.20,5.0,SSW,6.9,-,N/A,,Overcast,200,2012-10-07 16:27:00
10:53 AM,36.0,30.9,82,30.17,10.0,South,8.1,-,N/A,,Overcast,190,2012-10-07 16:53:00
11:29 AM,39.2,33.8,81,30.18,10.0,Variable,6.9,-,N/A,,Overcast,0,2012-10-07 17:29:00
11:53 AM,43.0,33.1,68,30.12,10.0,Variable,5.8,-,N/A,,Mostly Cloudy,0,2012-10-07 17:53:00
12:00 PM,44.6,33.8,66,30.17,10.0,SW,9.2,-,N/A,,Scattered Clouds,230,2012-10-07 18:00:00
12:53 PM,50.0,34.0,54,30.07,10.0,WSW,9.2,-,N/A,,Clear,250,2012-10-07 18:53:00
1:53 PM,55.0,33.1,43,30.03,10.0,West,15.0,20.7,N/A,,Clear,270,2012-10-07 19:53:00
2:53 PM,60.1,27.0,28,29.99,10.0,West,19.6,25.3,N/A,,Clear,280,2012-10-07 20:53:00
3:53 PM,61.0,16.0,17,29.98,10.0,NW,18.4,28.8,N/A,,Clear,310,2012-10-07 21:53:00
4:53 PM,62.1,15.1,16,29.98,10.0,NW,19.6,24.2,N/A,,Clear,310,2012-10-07 22:53:00
5:53 PM,60.1,12.0,15,30.00,10.0,West,12.7,-,N/A,,Clear,280,2012-10-07 23:53:00
6:53 PM,48.0,30.0,50,30.07,10.0,ENE,8.1,-,N/A,,Clear,70,2012-10-08 00:53:00
7:53 PM,43.0,30.9,62,30.13,10.0,ESE,11.5,-,N/A,,Clear,120,2012-10-08 01:53:00
8:53 PM,39.0,28.9,67,30.16,10.0,SE,8.1,-,N/A,,Clear,130,2012-10-08 02:53:00
9:53 PM,37.0,28.0,70,30.17,10.0,ESE,8.1,-,N/A,,Clear,120,2012-10-08 03:53:00
10:53 PM,36.0,27.0,70,30.16,10.0,SSE,5.8,-,N/A,,Clear,160,2012-10-08 04:53:00
11:53 PM,37.0,28.9,73,30.11,10.0,SSW,8.1,-,N/A,,Clear,200,2012-10-08 05:53:00